GW0544 Weather Reports


Display with metric or nautical units.
time (UTC)temp
F
wind
direction
speed
MPH
gust
MPH
rain 1hr
in
rain 24hr
in
rain mn
in
humidity
%
barometer
mb
20260503173056 62 254 2.0 7.0 0.00 0.00 0.00 75 1015.2
20260503171551 59 300 3.0 8.0 0.00 0.00 0.00 80 1015.2
20260503150103 51 0 0.0 3.0 0.00 0.00 0.00 90 1015.6
20260503120105 46 0 0.0 1.0 0.00 0.00 0.00 87 1013.7
20260503100113 50 0 0.0 2.0 0.00 0.00 0.00 84 1013.5
20260503081602 48 139 1.0 3.0 0.00 0.00 0.00 76 1014.9
20260503071559 50 0 0.0 0.0 0.00 0.00 0.00 64 1015.1
20260503060114 52 109 1.0 2.0 0.00 0.00 0.00 65 1015.3
20260503054554 53 128 1.0 3.0 0.00 0.00 0.00 65 1015.3
20260503053055 54 0 0.0 3.0 0.00 0.00 0.00 65 1015.2
20260503051556 54 141 0.0 2.0 0.00 0.00 0.00 61 1015.0
20260503050100 55 0 0.0 3.0 0.00 0.00 0.00 62 1014.9
20260503044625 55 142 0.0 3.0 0.00 0.00 0.00 65 1014.8
20260503043054 56 142 1.0 3.0 0.00 0.00 0.00 64 1014.5
20260503041556 57 0 1.0 2.0 0.00 0.00 0.00 62 1014.4
20260503040105 58 0 0.0 1.0 0.00 0.00 0.00 63 1014.1
20260503034557 60 0 0.0 2.0 0.00 0.00 0.00 62 1014.0
20260503033054 62 234 0.0 2.0 0.00 0.00 0.00 60 1013.9
20260503031553 64 0 0.0 2.0 0.00 0.00 0.00 62 1013.7
20260503030104 66 0 0.0 0.0 0.00 0.00 0.00 61 1013.7
20260503024557 68 0 0.0 2.0 0.00 0.00 0.00 61 1013.5
20260503023057 70 234 1.0 4.0 0.00 0.00 0.00 58 1013.6
20260503021551 72 242 2.0 4.0 0.00 0.00 0.00 54 1013.4
20260503020049 74 250 1.0 3.0 0.00 0.00 0.00 52 1013.5
20260503014601 76 253 1.0 3.0 0.00 0.00 0.00 50 1013.4
20260503013107 77 252 2.0 4.0 0.00 0.00 0.00 47 1013.1
20260503011555 78 240 1.0 5.0 0.00 0.00 0.00 47 1013.1
20260503010051 80 329 2.0 6.0 0.00 0.00 0.00 42 1013.3
20260503004614 81 263 3.0 7.0 0.00 0.00 0.00 30 1013.0
20260503003058 82 240 4.0 11.0 0.00 0.00 0.00 29 1013.0
20260503001554 82 252 3.0 9.0 0.00 0.00 0.00 23 1012.9
20260503000104 83 273 6.0 14.0 0.00 0.00 0.00 23 1012.7
20260502234616 85 221 6.0 10.0 0.00 0.00 0.00 23 1012.8
20260502233054 85 271 5.0 11.0 0.00 0.00 0.00 22 1012.8
20260502231552 86 271 3.0 9.0 0.00 0.00 0.00 26 1012.7
20260502230055 85 300 3.0 10.0 0.00 0.00 0.00 25 1012.8
20260502224812 85 265 4.0 13.0 0.00 0.00 0.00 29 1013.0
20260502223102 85 308 4.0 12.0 0.00 0.00 0.00 29 1013.2
20260502221600 84 250 5.0 13.0 0.00 0.00 0.00 32 1013.4
20260502220101 84 324 6.0 14.0 0.00 0.00 0.00 29 1013.7
20260502214611 84 269 6.0 13.0 0.00 0.00 0.00 31 1013.6
20260502213115 83 278 8.0 16.0 0.00 0.00 0.00 30 1013.8
20260502211555 84 265 8.0 18.0 0.00 0.00 0.00 29 1013.5
20260502210051 84 329 3.0 9.0 0.00 0.00 0.00 24 1013.5
20260502204552 83 249 4.0 10.0 0.00 0.00 0.00 28 1013.7
20260502203112 82 251 5.0 11.0 0.00 0.00 0.00 29 1013.9
20260502201553 81 287 8.0 13.0 0.00 0.00 0.00 31 1014.1
20260502200057 82 260 7.0 13.0 0.00 0.00 0.00 34 1014.1
20260502194552 81 261 9.0 14.0 0.00 0.00 0.00 36 1014.1
20260502193051 83 207 4.0 14.0 0.00 0.00 0.00 33 1014.3
20260502191555 84 213 6.0 21.0 0.00 0.00 0.00 31 1014.3
20260502190053 85 49 7.0 13.0 0.00 0.00 0.00 17 1014.6
20260502184549 83 242 3.0 8.0 0.00 0.00 0.00 30 1014.7
20260502183057 82 218 6.0 14.0 0.00 0.00 0.00 34 1014.7
20260502181552 81 224 8.0 19.0 0.00 0.00 0.00 35 1015.0